Flag for Norway Weather past 2 weeks in Stjørdal, Norway

Now
54 °F

Clear.


Feels Like: 54 °F
Forecast: 47 / 58 °F
Wind: 2 mph from Northeast

Location: Trondheim / Vaernes

Current Time: Oct 1, 2014 at 6:11:48 AM

Latest Report: Oct 1, 2014 at 5:00 AM


Visibility: 31 mi

Pressure: 30.17 "Hg

Humidity: 60%

Dew point: 41 °F

Location of StjørdalLocation

Historic Weather in Stjørdal — Graph

°F

Stjørdal temperature yesterday

Maximum temperature yesterday: 58 °F (at 4:00 PM)
Minimum temperature yesterday: 38 °F (at 6:00 AM)
Average temperature yesterday: 48 °F

Past Weeks' High & Low Weather Summary

 TemperatureHumidityPressure
High62 °F (Sep 19, 5:00 PM)99% (Sep 18, 6:00 AM)30.36 "Hg (Sep 18, 6:00 AM)
Low33 °F (Sep 23, 7:00 AM)43% (Sep 30, 3:00 PM)29.18 "Hg (Sep 26, 9:00 AM)
Average49 °F82%29.91 "Hg
* Reported Sep 16 4:00 AM — Oct 1 4:00 AM, Stjørdal, Weather by CustomWeather, © 2014

Note: Actual official high and low records may vary slightly from our data, if they occured in-between our weather recording intervals... More about our weather records

Advertising

Stjørdal weather history for previous 24 hours

 ConditionsComfort  
Time TempWeatherWind HumidityBarometerVisibility
4:00 AM
Oct 1
51 °FPassing clouds.2 mph70%30.18 "Hg18 mi
3:00 AM53 °FOvercast.3 mph66%30.19 "Hg28 mi
2:00 AM51 °FPassing clouds.5 mph72%30.19 "Hg28 mi
1:00 AM53 °FOvercast.2 mph67%30.20 "Hg31 mi
12:00 AM52 °FOvercast.1 mph72%30.20 "Hg31 mi
11:00 PM
Sep 30
51 °FOvercast.1 mph73%30.21 "Hg28 mi
10:00 PM51 °FOvercast.1 mph73%30.21 "Hg28 mi
9:00 PM51 °FOvercast.2 mph78%30.22 "Hg19 mi
8:00 PM51 °FOvercast.1 mph80%30.22 "Hg17 mi
7:00 PM52 °FOvercast.2 mph77%30.22 "Hg22 mi
6:00 PM53 °FOvercast.2 mph73%30.21 "Hg22 mi
5:00 PM54 °FPartly sunny.5 mph71%30.22 "Hg25 mi
4:00 PM58 °FPartly sunny.1 mph52%30.21 "Hg28 mi
3:00 PM58 °FScattered clouds.1 mph43%30.22 "Hg31 mi
2:00 PM58 °FSunny.2 mph47%30.22 "Hg22 mi
1:00 PM55 °FSunny.3 mph53%30.23 "Hg22 mi
12:00 PM52 °FSunny.3 mph64%30.24 "Hg16 mi
11:00 AM47 °FSunny.6 mph72%30.26 "Hg16 mi
10:00 AM44 °FSunny.6 mph80%30.27 "Hg12 mi
9:00 AM41 °FSunny.5 mph88%30.28 "Hg11 mi
8:00 AM39 °FSunny.5 mph91%30.27 "Hg11 mi
7:00 AM38 °FClear.5 mph93%30.27 "Hg9 mi
6:00 AM38 °FClear.5 mph94%30.28 "Hg4 mi
Weather by CustomWeather, © 2014

See weather overviewHow to use our weather pages